DW1520 Weather Reports


time (UTC)temp
C
wind
direction
speed
KPH
gust
KPH
rain 1hr
cm
rain 24hr
cm
rain mn
cm
humidity
%
barometer
mb
20260504045506 11 314 0.0 0.0 0.00 0.00 0.00 55 1001.1
20260504045007 11 314 0.0 0.0 0.00 0.00 0.00 55 1001.1
20260504044506 11 314 0.0 0.0 0.00 0.00 0.00 56 1001.1
20260504044006 11 314 0.0 0.0 0.00 0.00 0.00 55 1001.2
20260504043506 11 314 0.0 0.0 0.00 0.00 0.00 54 1001.3
20260504043006 11 314 0.0 0.0 0.00 0.00 0.00 54 1001.3
20260504042506 11 314 0.0 0.0 0.00 0.00 0.00 53 1001.4
20260504042006 11 314 0.0 0.0 0.00 0.00 0.00 52 1001.4
20260504041506 11 314 0.0 0.0 0.00 0.00 0.00 52 1001.6
20260504041007 11 314 0.0 0.0 0.00 0.00 0.00 51 1001.6
20260504040506 11 314 0.0 0.0 0.00 0.00 0.00 51 1001.7
20260504035506 12 314 0.0 0.0 0.00 0.00 0.00 50 1001.8
20260504034507 12 314 0.0 0.0 0.00 0.00 0.00 48 1002.0
20260504034007 12 314 0.0 0.0 0.00 0.00 0.00 47 1002.0
20260504033506 12 314 0.0 0.0 0.00 0.00 0.00 46 1002.0
20260504033006 12 314 0.0 0.0 0.00 0.00 0.00 46 1002.0
20260504032506 12 314 0.0 0.0 0.00 0.00 0.00 45 1002.0
20260504032006 12 314 0.0 0.0 0.00 0.00 0.00 45 1002.1
20260504031507 13 314 0.0 0.0 0.00 0.00 0.00 44 1002.2
20260504030507 13 314 0.0 0.0 0.00 0.00 0.00 44 1002.4
20260504030006 13 314 0.0 0.0 0.00 0.00 0.00 44 1002.5
20260504025506 13 314 0.0 0.0 0.00 0.00 0.00 44 1002.6
20260504025006 13 314 0.0 0.0 0.00 0.00 0.00 44 1002.6
20260504024506 13 314 0.0 0.0 0.00 0.00 0.00 44 1002.6
20260504024006 13 314 0.0 0.0 0.00 0.00 0.00 43 1002.6
20260504023506 14 314 0.0 0.0 0.00 0.00 0.00 42 1002.5
20260504023006 14 314 0.0 0.0 0.00 0.00 0.00 41 1002.5
20260504021507 15 314 0.0 0.0 0.00 0.00 0.00 40 1002.5
20260504021006 15 314 0.0 0.0 0.00 0.00 0.00 39 1002.4
20260504020506 15 314 0.0 0.0 0.00 0.00 0.00 38 1002.4
20260504020006 15 314 0.0 0.0 0.00 0.00 0.00 38 1002.4
20260504015505 15 314 0.0 0.0 0.00 0.00 0.00 38 1002.4
20260504015006 16 314 0.0 0.0 0.00 0.00 0.00 37 1002.4
20260504014506 16 314 0.0 0.0 0.00 0.00 0.00 37 1002.3
20260504014006 16 314 0.0 0.0 0.00 0.00 0.00 37 1002.3
20260504013506 16 314 0.0 0.0 0.00 0.00 0.00 36 1002.2
20260504013007 17 314 0.0 0.0 0.00 0.00 0.00 36 1002.3
20260504012006 17 314 0.0 0.0 0.00 0.00 0.00 34 1002.2
20260504011506 17 314 0.0 1.6 0.00 0.00 0.00 34 1002.3
20260504011006 17 314 0.0 0.0 0.00 0.00 0.00 34 1002.3
20260504010506 17 314 0.0 1.6 0.00 0.00 0.00 33 1002.2
20260504005506 18 314 1.6 4.8 0.00 0.00 0.00 33 1002.3
20260504005007 18 314 0.0 1.6 0.00 0.00 0.00 34 1002.2
20260504003506 18 314 1.6 4.8 0.00 0.00 0.00 31 1002.3
20260504003008 19 314 1.6 4.8 0.00 0.00 0.00 31 1002.3
20260504002506 19 314 1.6 4.8 0.00 0.00 0.00 30 1002.4
20260504001506 19 290 1.6 4.8 0.00 0.00 0.00 30 1002.5
20260504001006 19 296 3.2 9.7 0.00 0.00 0.00 31 1002.4
20260504000506 20 253 1.6 4.8 0.00 0.00 0.00 29 1002.4
20260504000006 20 311 3.2 8.0 0.00 0.00 0.00 30 1002.4
20260503235506 20 292 4.8 14.5 0.00 0.00 0.00 30 1002.4
20260503234506 20 284 3.2 12.9 0.00 0.00 0.00 30 1002.4
20260503233506 20 307 3.2 9.7 0.00 0.00 0.00 31 1002.5
20260503233006 20 312 4.8 12.9 0.00 0.00 0.00 32 1002.6
20260503232506 20 292 4.8 11.3 0.00 0.00 0.00 30 1002.5
20260503232006 20 295 4.8 11.3 0.00 0.00 0.00 29 1002.5
20260503231506 20 201 4.8 12.9 0.00 0.00 0.00 29 1002.6
20260503231006 20 299 3.2 11.3 0.00 0.00 0.00 29 1002.6
20260503230006 20 306 3.2 12.9 0.00 0.00 0.00 28 1002.6
20260503225506 20 291 4.8 16.1 0.00 0.00 0.00 28 1002.6
20260503225006 20 305 4.8 14.5 0.00 0.00 0.00 27 1002.6
20260503224506 20 279 4.8 14.5 0.00 0.00 0.00 27 1002.5
20260503224006 20 288 4.8 14.5 0.00 0.00 0.00 29 1002.5
20260503223506 21 254 3.2 16.1 0.00 0.00 0.00 30 1002.5
20260503223006 21 311 4.8 14.5 0.00 0.00 0.00 30 1002.5
20260503222506 21 302 3.2 14.5 0.00 0.00 0.00 32 1002.5
20260503222006 21 300 4.8 12.9 0.00 0.00 0.00 30 1002.5
20260503221506 21 295 3.2 14.5 0.00 0.00 0.00 33 1002.4
20260503221006 21 287 3.2 12.9 0.00 0.00 0.00 33 1002.4
20260503220506 21 229 4.8 14.5 0.00 0.00 0.00 31 1002.4
20260503220006 21 293 3.2 11.3 0.00 0.00 0.00 32 1002.4
20260503214506 21 307 6.4 16.1 0.00 0.00 0.00 30 1002.5
20260503214006 21 323 4.8 12.9 0.00 0.00 0.00 31 1002.5
20260503213506 21 299 8.0 16.1 0.00 0.00 0.00 31 1002.5
20260503213006 21 244 3.2 12.9 0.00 0.00 0.00 34 1002.5
20260503212506 21 243 4.8 11.3 0.00 0.00 0.00 31 1002.5
20260503212006 21 285 4.8 12.9 0.00 0.00 0.00 33 1002.6
20260503211506 21 253 4.8 12.9 0.00 0.00 0.00 32 1002.6
20260503211006 21 295 3.2 14.5 0.00 0.00 0.00 32 1002.6
20260503210506 21 297 4.8 14.5 0.00 0.00 0.00 33 1002.7
20260503210006 21 309 4.8 12.9 0.00 0.00 0.00 32 1002.7
20260503205506 21 296 8.0 16.1 0.00 0.00 0.00 35 1002.8
20260503205006 21 307 9.7 19.3 0.00 0.00 0.00 33 1002.9
20260503204506 21 232 4.8 12.9 0.00 0.00 0.00 33 1002.9
20260503204006 21 277 6.4 14.5 0.00 0.00 0.00 35 1003.0
20260503203006 21 291 3.2 12.9 0.00 0.00 0.00 37 1003.0
20260503202506 21 301 4.8 19.3 0.00 0.00 0.00 37 1003.1
20260503202006 21 238 3.2 12.9 0.00 0.00 0.00 38 1003.0
20260503201506 21 295 8.0 19.3 0.00 0.00 0.00 36 1003.0
20260503201006 21 299 4.8 12.9 0.00 0.00 0.00 36 1003.0
20260503200506 21 291 3.2 12.9 0.00 0.00 0.00 36 1003.0
20260503200006 21 304 1.6 12.9 0.00 0.00 0.00 37 1003.0
20260503195506 21 266 3.2 12.9 0.00 0.00 0.00 34 1003.1
20260503195006 21 295 8.0 16.1 0.00 0.00 0.00 33 1003.2
20260503194506 21 290 6.4 14.5 0.00 0.00 0.00 35 1003.1
20260503194006 21 307 6.4 14.5 0.00 0.00 0.00 34 1003.2
20260503193506 21 292 4.8 12.9 0.00 0.00 0.00 34 1003.3
20260503193006 21 307 3.2 9.7 0.00 0.00 0.00 33 1003.3
20260503191505 21 212 4.8 11.3 0.00 0.00 0.00 35 1003.3
20260503191006 21 293 6.4 14.5 0.00 0.00 0.00 35 1003.3
20260503190506 21 296 4.8 11.3 0.00 0.00 0.00 37 1003.3
20260503190006 21 266 4.8 14.5 0.00 0.00 0.00 36 1003.4
20260503185506 20 250 3.2 12.9 0.00 0.00 0.00 39 1003.3
20260503185006 20 256 4.8 14.5 0.00 0.00 0.00 39 1003.4
20260503184506 20 309 4.8 16.1 0.00 0.00 0.00 37 1003.4
20260503184006 20 306 3.2 11.3 0.00 0.00 0.00 38 1003.5
20260503183506 20 313 3.2 14.5 0.00 0.00 0.00 37 1003.5
20260503183006 20 300 8.0 19.3 0.00 0.00 0.00 38 1003.6
20260503182506 20 251 4.8 12.9 0.00 0.00 0.00 39 1003.5
20260503182006 20 277 4.8 19.3 0.00 0.00 0.00 40 1003.6
20260503181506 20 273 4.8 11.3 0.00 0.00 0.00 40 1003.6
20260503181005 20 296 4.8 14.5 0.00 0.00 0.00 41 1003.7
20260503180506 20 295 3.2 11.3 0.00 0.00 0.00 43 1003.7
20260503180005 20 302 6.4 11.3 0.00 0.00 0.00 40 1003.7
20260503175505 20 311 3.2 11.3 0.00 0.00 0.00 42 1003.7
20260503174505 19 302 6.4 14.5 0.00 0.00 0.00 43 1003.7
20260503174006 19 298 4.8 9.7 0.00 0.00 0.00 41 1003.9
20260503173505 19 302 4.8 16.1 0.00 0.00 0.00 44 1003.9
20260503173006 19 298 4.8 11.3 0.00 0.00 0.00 45 1003.9
20260503172006 19 300 4.8 14.5 0.00 0.00 0.00 44 1003.9
20260503171506 18 288 4.8 9.7 0.00 0.00 0.00 44 1003.9
20260503171006 18 306 3.2 9.7 0.00 0.00 0.00 45 1003.8
20260503170506 18 303 6.4 11.3 0.00 0.00 0.00 44 1003.8
20260503151006 17 223 3.2 11.3 0.00 0.00 0.00 48 1003.6
20260503150506 16 154 1.6 9.7 0.00 0.00 0.00 49 1003.5
20260503131006 12 171 9.7 16.1 0.00 0.00 0.00 52 1003.8
20260503130506 12 175 8.0 16.1 0.00 0.00 0.00 53 1003.7
20260503110506 11 177 11.3 20.9 0.00 0.00 0.00 56 1003.5
20260503090505 12 174 9.7 16.1 0.00 0.00 0.00 50 1005.0
20260503081505 13 174 11.3 20.9 0.00 0.00 0.00 48 1006.4
20260503081006 13 177 9.7 19.3 0.00 0.00 0.00 49 1006.6
20260503072505 12 174 8.0 11.3 0.00 0.00 0.00 50 1007.0
20260503072006 12 177 8.0 16.1 0.00 0.00 0.00 50 1006.8
20260503071506 12 157 8.0 16.1 0.00 0.00 0.00 51 1006.8
20260503071006 12 167 9.7 14.5 0.00 0.00 0.00 51 1006.9
20260503070506 12 174 8.0 16.1 0.00 0.00 0.00 51 1007.0